FW7079 Weather Reports


Display with metric or nautical units.
time (UTC)temp
F
wind
direction
speed
MPH
gust
MPH
rain 1hr
in
rain 24hr
in
rain mn
in
humidity
%
barometer
mb
20260507141556 54 0 0.0 1.0 0.00 0.00 0.00 78 1020.6
20260507140108 51 0 0.0 1.0 0.00 0.00 0.00 87 1020.7
20260507134556 49 0 0.0 1.0 0.00 0.00 0.00 92 1020.8
20260507133054 47 0 0.0 1.0 0.00 0.00 0.00 93 1020.7
20260507131559 45 0 0.0 1.0 0.00 0.00 0.00 94 1020.7
20260507130055 44 0 0.0 0.0 0.00 0.00 0.00 93 1020.7
20260507124559 42 0 0.0 0.0 0.00 0.00 0.00 93 1020.6
20260507123058 40 0 0.0 0.0 0.00 0.00 0.00 93 1020.3
20260507121555 39 0 0.0 0.0 0.00 0.00 0.00 92 1020.1
20260507120053 39 0 0.0 0.0 0.00 0.00 0.00 91 1020.0
20260507114554 39 0 0.0 0.0 0.00 0.00 0.00 91 1020.0
20260507113054 40 0 0.0 0.0 0.00 0.00 0.00 91 1019.9
20260507111553 40 0 0.0 0.0 0.00 0.00 0.00 91 1020.0
20260507110059 40 0 0.0 0.0 0.00 0.00 0.00 91 1019.9
20260507104553 40 0 0.0 0.0 0.00 0.00 0.00 91 1019.9
20260507103055 40 0 0.0 0.0 0.00 0.00 0.00 91 1019.7
20260507101604 40 0 0.0 0.0 0.00 0.00 0.00 91 1019.9
20260507100053 40 0 0.0 0.0 0.00 0.00 0.00 91 1019.6
20260507094603 40 0 0.0 0.0 0.00 0.00 0.00 91 1019.5
20260507093056 39 0 0.0 0.0 0.00 0.00 0.00 91 1019.6
20260507091603 39 0 0.0 0.0 0.00 0.00 0.00 90 1019.8
20260507090110 39 0 0.0 0.0 0.00 0.00 0.00 90 1019.3
20260507084559 40 0 0.0 0.0 0.00 0.00 0.00 89 1019.8
20260507083102 40 0 0.0 0.0 0.00 0.00 0.00 90 1019.5
20260507081558 40 0 0.0 0.0 0.00 0.00 0.00 89 1019.8
20260507080057 41 0 0.0 0.0 0.00 0.00 0.00 89 1019.6
20260507074558 41 0 0.0 0.0 0.00 0.00 0.00 90 1019.7
20260507073103 41 0 0.0 0.0 0.00 0.00 0.00 89 1019.9
20260507071556 41 0 0.0 0.0 0.00 0.00 0.00 88 1019.8
20260507070135 42 0 0.0 0.0 0.00 0.00 0.00 88 1019.6
20260507064553 42 0 0.0 0.0 0.00 0.00 0.00 88 1019.6
20260507063100 42 0 0.0 1.0 0.00 0.00 0.00 87 1019.3
20260507061549 43 0 0.0 0.0 0.00 0.00 0.00 87 1020.2
20260507060053 43 0 0.0 0.0 0.00 0.00 0.00 87 1020.4
20260507054554 43 0 0.0 0.0 0.00 0.00 0.00 86 1020.3
20260507053055 44 0 0.0 0.0 0.00 0.00 0.00 86 1020.2
20260507051555 44 0 0.0 0.0 0.00 0.00 0.00 85 1020.0
20260507044603 45 0 0.0 0.0 0.00 0.00 0.00 84 1019.7
20260507043104 46 0 0.0 0.0 0.00 0.00 0.00 84 1019.1
20260507041554 46 0 0.0 0.0 0.00 0.00 0.00 82 1019.2
20260507040052 47 0 0.0 0.0 0.00 0.00 0.00 81 1019.1
20260507034554 48 0 0.0 0.0 0.00 0.00 0.00 78 1019.4
20260507033059 49 0 0.0 0.0 0.00 0.00 0.00 78 1019.2
20260507031555 50 0 0.0 0.0 0.00 0.00 0.00 76 1018.9
20260507030105 51 0 0.0 0.0 0.00 0.00 0.00 73 1018.8
20260507024600 52 0 0.0 0.0 0.00 0.00 0.00 70 1018.6
20260507023052 54 0 0.0 0.0 0.00 0.00 0.00 67 1018.4
20260507021613 56 0 0.0 0.0 0.00 0.00 0.00 63 1018.0
20260507020106 57 0 0.0 1.0 0.00 0.00 0.00 60 1018.0
20260507014612 58 0 0.0 1.0 0.00 0.00 0.00 60 1017.8
20260507013056 59 0 0.0 1.0 0.00 0.00 0.00 60 1017.7
20260507011554 59 0 0.0 3.0 0.00 0.00 0.00 58 1017.7
20260507010111 60 0 0.0 1.0 0.00 0.00 0.00 58 1017.6
20260507004557 60 0 0.0 1.0 0.00 0.00 0.00 59 1017.5
20260507003051 61 0 0.0 3.0 0.00 0.00 0.00 59 1017.3
20260507001602 61 0 0.0 1.0 0.00 0.00 0.00 59 1017.2
20260507000051 61 0 0.0 2.0 0.00 0.00 0.00 57 1017.0
20260506234555 62 209 0.0 3.0 0.00 0.00 0.00 54 1016.8
20260506233055 63 43 0.0 2.0 0.00 0.00 0.00 55 1016.6
20260506231554 63 267 0.0 3.0 0.00 0.00 0.00 55 1016.4
20260506230103 64 0 0.0 3.0 0.00 0.00 0.00 54 1016.5
20260506224558 63 314 1.0 3.0 0.00 0.00 0.00 54 1016.3
20260506223058 64 44 1.0 4.0 0.00 0.00 0.00 53 1016.1
20260506221558 64 61 1.0 6.0 0.00 0.00 0.00 56 1015.7
20260506220056 65 204 0.0 2.0 0.00 0.00 0.00 52 1015.9
20260506214553 64 0.0 0.0 0.00 0.00 0.00 53 1016.0
20260506213056 64 284 1.0 4.0 0.00 0.00 0.00 54 1016.1
20260506211555 64 76 1.0 6.0 0.00 0.00 0.00 53 1016.2
20260506210100 64 136 1.0 2.0 0.00 0.00 0.00 54 1016.3
20260506204554 63 44 0.0 2.0 0.00 0.00 0.00 59 1016.5
20260506203104 63 76 1.0 3.0 0.00 0.00 0.00 57 1016.7
20260506201620 63 269 1.0 6.0 0.00 0.00 0.00 58 1016.8
20260506200054 63 30 1.0 3.0 0.00 0.00 0.00 58 1016.7
20260506194557 63 259 1.0 3.0 0.00 0.00 0.00 58 1017.0
20260506193056 62 315 1.0 5.0 0.00 0.00 0.00 59 1017.1
20260506191559 61 239 1.0 5.0 0.00 0.00 0.00 60 1017.2
20260506190056 61 105 1.0 4.0 0.00 0.00 0.00 59 1017.3
20260506184558 61 345 2.0 7.0 0.00 0.00 0.00 59 1017.4
20260506183055 61 40 1.0 6.0 0.00 0.00 0.00 60 1017.6
20260506181553 62 47 2.0 7.0 0.00 0.00 0.00 59 1017.7
20260506180057 61 0 2.0 8.0 0.00 0.00 0.00 61 1017.8
20260506174552 61 50 1.0 5.0 0.00 0.00 0.00 64 1018.0
20260506173112 62 76 1.0 4.0 0.00 0.00 0.00 59 1018.0
20260506171558 62 315 1.0 9.0 0.00 0.00 0.00 62 1018.0
20260506170055 62 284 3.0 11.0 0.00 0.00 0.00 57 1018.1
20260506164555 60 56 2.0 9.0 0.00 0.00 0.00 61 1018.2
20260506163104 60 78 3.0 8.0 0.00 0.00 0.00 60 1018.4
20260506161559 59 44 2.0 9.0 0.00 0.00 0.00 64 1018.3
20260506160052 58 195 1.0 6.0 0.00 0.00 0.00 64 1018.1
20260506154601 56 11 2.0 9.0 0.00 0.00 0.00 66 1018.2
20260506153054 56 209 1.0 6.0 0.00 0.00 0.00 66 1018.1
20260506151551 54 22 1.0 5.0 0.00 0.00 0.00 71 1018.1
20260506144602 52 352 3.0 8.0 0.00 0.00 0.00 74 1017.7
20260506143051 51 176 1.0 4.0 0.00 0.00 0.00 78 1017.5